owner,sensor,date,latitude,longitude,air_temperature,qcFlag 
WAVCIS,ioos:station:WAVCIS:CSI15:1,2011-03-01T00:00:00Z,28.8332,-90.8320,24.51,11111222 
WAVCIS,ioos:station:WAVCIS:CSI15:1,2011-03-01T01:00:00Z,28.8332,-90.8320,24.28,11111222 
WAVCIS,ioos:station:WAVCIS:CSI15:1,2011-03-01T02:00:00Z,28.8332,-90.8320,23.73,11111222 
WAVCIS,ioos:station:WAVCIS:CSI15:1,2011-03-01T03:00:00Z,28.8332,-90.8320,23.59,11111222 
WAVCIS,ioos:station:WAVCIS:CSI15:1,2011-03-01T04:00:00Z,28.8332,-90.8320,23.69,11111222 
WAVCIS,ioos:station:WAVCIS:CSI15:1,2011-03-01T05:00:00Z,28.8332,-90.8320,24.5,11111222 
WAVCIS,ioos:station:WAVCIS:CSI15:1,2011-03-01T06:00:00Z,28.8332,-90.8320,25.28,11111222 
WAVCIS,ioos:station:WAVCIS:CSI15:1,2011-03-01T07:00:00Z,28.8332,-90.8320,25.21,11111222 
WAVCIS,ioos:station:WAVCIS:CSI15:1,2011-03-01T08:00:00Z,28.8332,-90.8320,24.24,11111222 
WAVCIS,ioos:station:WAVCIS:CSI15:1,2011-03-01T09:00:00Z,28.8332,-90.8320,23.52,11111222 
WAVCIS,ioos:station:WAVCIS:CSI15:1,2011-03-01T10:00:00Z,28.8332,-90.8320,22.34,11111222 
WAVCIS,ioos:station:WAVCIS:CSI15:1,2011-03-01T11:00:00Z,28.8332,-90.8320,21.14,11111222 
WAVCIS,ioos:station:WAVCIS:CSI15:1,2011-03-01T12:00:00Z,28.8332,-90.8320,19.61,11111222 
WAVCIS,ioos:station:WAVCIS:CSI15:1,2011-03-01T13:00:00Z,28.8332,-90.8320,19.16,11111222 
WAVCIS,ioos:station:WAVCIS:CSI15:1,2011-03-01T14:00:00Z,28.8332,-90.8320,18.68,11111222 
WAVCIS,ioos:station:WAVCIS:CSI15:1,2011-03-01T15:00:00Z,28.8332,-90.8320,18.23,11111222 
WAVCIS,ioos:station:WAVCIS:CSI15:1,2011-03-01T16:00:00Z,28.8332,-90.8320,18.31,11111222 
WAVCIS,ioos:station:WAVCIS:CSI15:1,2011-03-01T17:00:00Z,28.8332,-90.8320,18.7,11111222 
WAVCIS,ioos:station:WAVCIS:CSI15:1,2011-03-01T18:00:00Z,28.8332,-90.8320,19.35,11111222 
WAVCIS,ioos:station:WAVCIS:CSI15:1,2011-03-01T19:00:00Z,28.8332,-90.8320,19.79,11111222 
WAVCIS,ioos:station:WAVCIS:CSI15:1,2011-03-01T20:00:00Z,28.8332,-90.8320,20.31,11111222 
WAVCIS,ioos:station:WAVCIS:CSI15:1,2011-03-01T21:00:00Z,28.8332,-90.8320,20.95,11111222 
WAVCIS,ioos:station:WAVCIS:CSI15:1,2011-03-01T22:00:00Z,28.8332,-90.8320,21.6,11111222 
WAVCIS,ioos:station:WAVCIS:CSI15:1,2011-03-01T23:00:00Z,28.8332,-90.8320,22.05,11111222 
WAVCIS,ioos:station:WAVCIS:CSI15:1,2011-03-02T00:00:00Z,28.8332,-90.8320,21.47,11111222 
WAVCIS,ioos:station:WAVCIS:CSI15:1,2011-03-02T01:00:00Z,28.8332,-90.8320,20.88,11111222 
WAVCIS,ioos:station:WAVCIS:CSI15:1,2011-03-02T02:00:00Z,28.8332,-90.8320,21.02,11111222 
WAVCIS,ioos:station:WAVCIS:CSI15:1,2011-03-02T03:00:00Z,28.8332,-90.8320,21.68,11111222 
WAVCIS,ioos:station:WAVCIS:CSI15:1,2011-03-02T04:00:00Z,28.8332,-90.8320,22.01,11111222 
WAVCIS,ioos:station:WAVCIS:CSI15:1,2011-03-02T05:00:00Z,28.8332,-90.8320,21.92,11111222 
WAVCIS,ioos:station:WAVCIS:CSI15:1,2011-03-02T06:00:00Z,28.8332,-90.8320,21.85,11111222 
WAVCIS,ioos:station:WAVCIS:CSI15:1,2011-03-02T07:00:00Z,28.8332,-90.8320,21.73,11111222 
WAVCIS,ioos:station:WAVCIS:CSI15:1,2011-03-02T08:00:00Z,28.8332,-90.8320,21.7,11111222 
WAVCIS,ioos:station:WAVCIS:CSI15:1,2011-03-02T09:00:00Z,28.8332,-90.8320,21.65,11111222 
WAVCIS,ioos:station:WAVCIS:CSI15:1,2011-03-02T10:00:00Z,28.8332,-90.8320,21.82,11111222 
WAVCIS,ioos:station:WAVCIS:CSI15:1,2011-03-02T11:00:00Z,28.8332,-90.8320,21.78,11111222 
WAVCIS,ioos:station:WAVCIS:CSI15:1,2011-03-02T12:00:00Z,28.8332,-90.8320,22.02,11111222 
WAVCIS,ioos:station:WAVCIS:CSI15:1,2011-03-02T13:00:00Z,28.8332,-90.8320,21.79,11111222 
WAVCIS,ioos:station:WAVCIS:CSI15:1,2011-03-02T14:00:00Z,28.8332,-90.8320,22.46,11111222 
WAVCIS,ioos:station:WAVCIS:CSI15:1,2011-03-02T15:00:00Z,28.8332,-90.8320,22.77,11111222 
WAVCIS,ioos:station:WAVCIS:CSI15:1,2011-03-02T16:00:00Z,28.8332,-90.8320,22.81,11111222 
WAVCIS,ioos:station:WAVCIS:CSI15:1,2011-03-02T17:00:00Z,28.8332,-90.8320,22.99,11111222 
WAVCIS,ioos:station:WAVCIS:CSI15:1,2011-03-02T18:00:00Z,28.8332,-90.8320,22.87,11111222 
WAVCIS,ioos:station:WAVCIS:CSI15:1,2011-03-02T19:00:00Z,28.8332,-90.8320,22.96,11111222 
WAVCIS,ioos:station:WAVCIS:CSI15:1,2011-03-02T20:00:00Z,28.8332,-90.8320,22.98,11111222 
WAVCIS,ioos:station:WAVCIS:CSI15:1,2011-03-02T21:00:00Z,28.8332,-90.8320,23.21,11111222 
WAVCIS,ioos:station:WAVCIS:CSI15:1,2011-03-02T22:00:00Z,28.8332,-90.8320,23.34,11111222 
WAVCIS,ioos:station:WAVCIS:CSI15:1,2011-03-02T23:00:00Z,28.8332,-90.8320,23.38,11111222 
WAVCIS,ioos:station:WAVCIS:CSI15:1,2011-03-03T00:00:00Z,28.8332,-90.8320,23.14,11111222 
WAVCIS,ioos:station:WAVCIS:CSI15:1,2011-03-03T01:00:00Z,28.8332,-90.8320,22.94,11111222 
WAVCIS,ioos:station:WAVCIS:CSI15:1,2011-03-03T02:00:00Z,28.8332,-90.8320,23.02,11111222 
WAVCIS,ioos:station:WAVCIS:CSI15:1,2011-03-03T03:00:00Z,28.8332,-90.8320,22.73,11111222 
WAVCIS,ioos:station:WAVCIS:CSI15:1,2011-03-03T04:00:00Z,28.8332,-90.8320,22.64,11111222 
WAVCIS,ioos:station:WAVCIS:CSI15:1,2011-03-03T05:00:00Z,28.8332,-90.8320,22.77,11111222 
WAVCIS,ioos:station:WAVCIS:CSI15:1,2011-03-03T06:00:00Z,28.8332,-90.8320,22.72,11111222 
WAVCIS,ioos:station:WAVCIS:CSI15:1,2011-03-03T07:00:00Z,28.8332,-90.8320,22.71,11111222 
WAVCIS,ioos:station:WAVCIS:CSI15:1,2011-03-03T08:00:00Z,28.8332,-90.8320,22.68,11111222 
WAVCIS,ioos:station:WAVCIS:CSI15:1,2011-03-03T09:00:00Z,28.8332,-90.8320,22.74,11111222 
WAVCIS,ioos:station:WAVCIS:CSI15:1,2011-03-03T10:00:00Z,28.8332,-90.8320,22.77,11111222 
WAVCIS,ioos:station:WAVCIS:CSI15:1,2011-03-03T11:00:00Z,28.8332,-90.8320,22.76,11111222 
WAVCIS,ioos:station:WAVCIS:CSI15:1,2011-03-03T12:00:00Z,28.8332,-90.8320,22.72,11111222 
WAVCIS,ioos:station:WAVCIS:CSI15:1,2011-03-03T13:00:00Z,28.8332,-90.8320,23.09,11111222 
WAVCIS,ioos:station:WAVCIS:CSI15:1,2011-03-03T14:00:00Z,28.8332,-90.8320,23.36,11111222 
WAVCIS,ioos:station:WAVCIS:CSI15:1,2011-03-03T15:00:00Z,28.8332,-90.8320,23.48,11111222 
WAVCIS,ioos:station:WAVCIS:CSI15:1,2011-03-03T16:00:00Z,28.8332,-90.8320,23.71,11111222 
WAVCIS,ioos:station:WAVCIS:CSI15:1,2011-03-03T17:00:00Z,28.8332,-90.8320,23.72,11111222 
WAVCIS,ioos:station:WAVCIS:CSI15:1,2011-03-03T18:00:00Z,28.8332,-90.8320,23.7,11111222 
WAVCIS,ioos:station:WAVCIS:CSI15:1,2011-03-03T19:00:00Z,28.8332,-90.8320,24.03,11111222 
WAVCIS,ioos:station:WAVCIS:CSI15:1,2011-03-03T20:00:00Z,28.8332,-90.8320,24.18,11111222 
WAVCIS,ioos:station:WAVCIS:CSI15:1,2011-03-03T21:00:00Z,28.8332,-90.8320,24.37,11111222 
WAVCIS,ioos:station:WAVCIS:CSI15:1,2011-03-03T22:00:00Z,28.8332,-90.8320,24.31,11111222 
WAVCIS,ioos:station:WAVCIS:CSI15:1,2011-03-03T23:00:00Z,28.8332,-90.8320,24.27,11111222 
WAVCIS,ioos:station:WAVCIS:CSI15:1,2011-03-04T00:00:00Z,28.8332,-90.8320,24.37,11111222 
WAVCIS,ioos:station:WAVCIS:CSI15:1,2011-03-04T01:00:00Z,28.8332,-90.8320,24.25,11111222 
WAVCIS,ioos:station:WAVCIS:CSI15:1,2011-03-04T02:00:00Z,28.8332,-90.8320,24.58,11111222 
WAVCIS,ioos:station:WAVCIS:CSI15:1,2011-03-04T03:00:00Z,28.8332,-90.8320,24.68,11111222 
WAVCIS,ioos:station:WAVCIS:CSI15:1,2011-03-04T04:00:00Z,28.8332,-90.8320,24.97,11111222 
WAVCIS,ioos:station:WAVCIS:CSI15:1,2011-03-04T05:00:00Z,28.8332,-90.8320,27.24,11111222 
WAVCIS,ioos:station:WAVCIS:CSI15:1,2011-03-04T06:00:00Z,28.8332,-90.8320,27.13,11111222 
WAVCIS,ioos:station:WAVCIS:CSI15:1,2011-03-04T07:00:00Z,28.8332,-90.8320,26.2,11111222 
WAVCIS,ioos:station:WAVCIS:CSI15:1,2011-03-04T08:00:00Z,28.8332,-90.8320,25.55,11111222 
WAVCIS,ioos:station:WAVCIS:CSI15:1,2011-03-04T09:00:00Z,28.8332,-90.8320,24.05,11111222 
WAVCIS,ioos:station:WAVCIS:CSI15:1,2011-03-04T10:00:00Z,28.8332,-90.8320,24.09,11111222 
WAVCIS,ioos:station:WAVCIS:CSI15:1,2011-03-04T11:00:00Z,28.8332,-90.8320,23.78,11111222 
WAVCIS,ioos:station:WAVCIS:CSI15:1,2011-03-04T12:00:00Z,28.8332,-90.8320,23.68,11111222 
WAVCIS,ioos:station:WAVCIS:CSI15:1,2011-03-04T13:00:00Z,28.8332,-90.8320,24.21,11111222 
WAVCIS,ioos:station:WAVCIS:CSI15:1,2011-03-04T14:00:00Z,28.8332,-90.8320,24.34,11111222 
WAVCIS,ioos:station:WAVCIS:CSI15:1,2011-03-04T15:00:00Z,28.8332,-90.8320,25.22,11111222 
WAVCIS,ioos:station:WAVCIS:CSI15:1,2011-03-04T16:00:00Z,28.8332,-90.8320,24.6,11111222 
WAVCIS,ioos:station:WAVCIS:CSI15:1,2011-03-04T17:00:00Z,28.8332,-90.8320,24.71,11111222 
WAVCIS,ioos:station:WAVCIS:CSI15:1,2011-03-04T18:00:00Z,28.8332,-90.8320,24.66,11111222 
WAVCIS,ioos:station:WAVCIS:CSI15:1,2011-03-04T19:00:00Z,28.8332,-90.8320,24.05,11111222 
WAVCIS,ioos:station:WAVCIS:CSI15:1,2011-03-04T20:00:00Z,28.8332,-90.8320,23.98,11111222 
WAVCIS,ioos:station:WAVCIS:CSI15:1,2011-03-04T21:00:00Z,28.8332,-90.8320,24.83,11111222 
WAVCIS,ioos:station:WAVCIS:CSI15:1,2011-03-04T22:00:00Z,28.8332,-90.8320,24.41,11111222 
WAVCIS,ioos:station:WAVCIS:CSI15:1,2011-03-04T23:00:00Z,28.8332,-90.8320,24.33,11111222 
WAVCIS,ioos:station:WAVCIS:CSI15:1,2011-03-05T00:00:00Z,28.8332,-90.8320,24.75,11111222 
WAVCIS,ioos:station:WAVCIS:CSI15:1,2011-03-05T01:00:00Z,28.8332,-90.8320,24.21,11111222 
WAVCIS,ioos:station:WAVCIS:CSI15:1,2011-03-05T02:00:00Z,28.8332,-90.8320,24.19,11111222 
WAVCIS,ioos:station:WAVCIS:CSI15:1,2011-03-05T03:00:00Z,28.8332,-90.8320,24.04,11111222 
WAVCIS,ioos:station:WAVCIS:CSI15:1,2011-03-05T04:00:00Z,28.8332,-90.8320,23.88,11111222 
WAVCIS,ioos:station:WAVCIS:CSI15:1,2011-03-05T05:00:00Z,28.8332,-90.8320,23.99,11111222 
WAVCIS,ioos:station:WAVCIS:CSI15:1,2011-03-05T06:00:00Z,28.8332,-90.8320,23.73,11111222 
WAVCIS,ioos:station:WAVCIS:CSI15:1,2011-03-05T07:00:00Z,28.8332,-90.8320,23.58,11111222 
WAVCIS,ioos:station:WAVCIS:CSI15:1,2011-03-05T08:00:00Z,28.8332,-90.8320,23.46,11111222 
WAVCIS,ioos:station:WAVCIS:CSI15:1,2011-03-05T09:00:00Z,28.8332,-90.8320,23.25,11111222 
WAVCIS,ioos:station:WAVCIS:CSI15:1,2011-03-05T10:00:00Z,28.8332,-90.8320,23.91,11111222 
WAVCIS,ioos:station:WAVCIS:CSI15:1,2011-03-05T11:00:00Z,28.8332,-90.8320,23.25,11111222 
WAVCIS,ioos:station:WAVCIS:CSI15:1,2011-03-05T12:00:00Z,28.8332,-90.8320,23.45,11111222 
WAVCIS,ioos:station:WAVCIS:CSI15:1,2011-03-05T13:00:00Z,28.8332,-90.8320,23.49,11111222 
WAVCIS,ioos:station:WAVCIS:CSI15:1,2011-03-05T14:00:00Z,28.8332,-90.8320,23.33,11111222 
WAVCIS,ioos:station:WAVCIS:CSI15:1,2011-03-05T15:00:00Z,28.8332,-90.8320,23.71,11111222 
WAVCIS,ioos:station:WAVCIS:CSI15:1,2011-03-05T16:00:00Z,28.8332,-90.8320,23.78,11111222 
WAVCIS,ioos:station:WAVCIS:CSI15:1,2011-03-05T17:00:00Z,28.8332,-90.8320,23.98,11111222 
WAVCIS,ioos:station:WAVCIS:CSI15:1,2011-03-05T18:00:00Z,28.8332,-90.8320,23.98,11111222 
WAVCIS,ioos:station:WAVCIS:CSI15:1,2011-03-05T19:00:00Z,28.8332,-90.8320,23.6,11111222 
WAVCIS,ioos:station:WAVCIS:CSI15:1,2011-03-05T20:00:00Z,28.8332,-90.8320,20.33,11111222 
WAVCIS,ioos:station:WAVCIS:CSI15:1,2011-03-05T21:00:00Z,28.8332,-90.8320,20.87,11111222 
WAVCIS,ioos:station:WAVCIS:CSI15:1,2011-03-05T22:00:00Z,28.8332,-90.8320,21.4,11111222 
WAVCIS,ioos:station:WAVCIS:CSI15:1,2011-03-05T23:00:00Z,28.8332,-90.8320,21.55,11111222 
WAVCIS,ioos:station:WAVCIS:CSI15:1,2011-03-06T00:00:00Z,28.8332,-90.8320,22.36,11111222 
WAVCIS,ioos:station:WAVCIS:CSI15:1,2011-03-06T01:00:00Z,28.8332,-90.8320,22.51,11111222 
WAVCIS,ioos:station:WAVCIS:CSI15:1,2011-03-06T02:00:00Z,28.8332,-90.8320,22.17,11111222 
WAVCIS,ioos:station:WAVCIS:CSI15:1,2011-03-06T03:00:00Z,28.8332,-90.8320,21.33,11111222 
WAVCIS,ioos:station:WAVCIS:CSI15:1,2011-03-06T04:00:00Z,28.8332,-90.8320,20.68,11111222 
WAVCIS,ioos:station:WAVCIS:CSI15:1,2011-03-06T05:00:00Z,28.8332,-90.8320,19.45,11111222 
WAVCIS,ioos:station:WAVCIS:CSI15:1,2011-03-06T06:00:00Z,28.8332,-90.8320,17.89,11111222 
WAVCIS,ioos:station:WAVCIS:CSI15:1,2011-03-06T07:00:00Z,28.8332,-90.8320,17.13,11111222 
WAVCIS,ioos:station:WAVCIS:CSI15:1,2011-03-06T08:00:00Z,28.8332,-90.8320,16.23,11111222 
WAVCIS,ioos:station:WAVCIS:CSI15:1,2011-03-06T09:00:00Z,28.8332,-90.8320,16.61,11111222 
WAVCIS,ioos:station:WAVCIS:CSI15:1,2011-03-06T10:00:00Z,28.8332,-90.8320,15.8,11111222 
WAVCIS,ioos:station:WAVCIS:CSI15:1,2011-03-06T11:00:00Z,28.8332,-90.8320,14.82,11111222 
WAVCIS,ioos:station:WAVCIS:CSI15:1,2011-03-06T12:00:00Z,28.8332,-90.8320,14.58,11111222 
WAVCIS,ioos:station:WAVCIS:CSI15:1,2011-03-06T13:00:00Z,28.8332,-90.8320,14.08,11111222 
WAVCIS,ioos:station:WAVCIS:CSI15:1,2011-03-06T14:00:00Z,28.8332,-90.8320,14.16,11111222 
WAVCIS,ioos:station:WAVCIS:CSI15:1,2011-03-06T15:00:00Z,28.8332,-90.8320,13.85,11111222 
WAVCIS,ioos:station:WAVCIS:CSI15:1,2011-03-06T16:00:00Z,28.8332,-90.8320,14.13,11111222 
WAVCIS,ioos:station:WAVCIS:CSI15:1,2011-03-06T17:00:00Z,28.8332,-90.8320,14.23,11111222 
WAVCIS,ioos:station:WAVCIS:CSI15:1,2011-03-06T18:00:00Z,28.8332,-90.8320,14.71,11111222 
WAVCIS,ioos:station:WAVCIS:CSI15:1,2011-03-06T19:00:00Z,28.8332,-90.8320,15.5,11111222 
WAVCIS,ioos:station:WAVCIS:CSI15:1,2011-03-06T20:00:00Z,28.8332,-90.8320,15.76,11111222 
WAVCIS,ioos:station:WAVCIS:CSI15:1,2011-03-06T21:00:00Z,28.8332,-90.8320,16.68,11111222 
WAVCIS,ioos:station:WAVCIS:CSI15:1,2011-03-06T22:00:00Z,28.8332,-90.8320,18.41,11111222 
WAVCIS,ioos:station:WAVCIS:CSI15:1,2011-03-06T23:00:00Z,28.8332,-90.8320,18.5,11111222 
WAVCIS,ioos:station:WAVCIS:CSI15:1,2011-03-07T00:00:00Z,28.8332,-90.8320,18.15,11111222 
WAVCIS,ioos:station:WAVCIS:CSI15:1,2011-03-07T01:00:00Z,28.8332,-90.8320,17.43,11111222 
WAVCIS,ioos:station:WAVCIS:CSI15:1,2011-03-07T02:00:00Z,28.8332,-90.8320,18.29,11111222 
WAVCIS,ioos:station:WAVCIS:CSI15:1,2011-03-07T03:00:00Z,28.8332,-90.8320,17.69,11111222 
WAVCIS,ioos:station:WAVCIS:CSI15:1,2011-03-07T04:00:00Z,28.8332,-90.8320,17.67,11111222 
WAVCIS,ioos:station:WAVCIS:CSI15:1,2011-03-07T05:00:00Z,28.8332,-90.8320,17.52,11111222 
WAVCIS,ioos:station:WAVCIS:CSI15:1,2011-03-07T06:00:00Z,28.8332,-90.8320,17.22,11111222 
WAVCIS,ioos:station:WAVCIS:CSI15:1,2011-03-07T07:00:00Z,28.8332,-90.8320,17.18,11111222 
WAVCIS,ioos:station:WAVCIS:CSI15:1,2011-03-07T08:00:00Z,28.8332,-90.8320,17.11,11111222 
WAVCIS,ioos:station:WAVCIS:CSI15:1,2011-03-07T09:00:00Z,28.8332,-90.8320,17.34,11111222 
WAVCIS,ioos:station:WAVCIS:CSI15:1,2011-03-07T10:00:00Z,28.8332,-90.8320,17.23,11111222 
WAVCIS,ioos:station:WAVCIS:CSI15:1,2011-03-07T11:00:00Z,28.8332,-90.8320,17.29,11111222 
WAVCIS,ioos:station:WAVCIS:CSI15:1,2011-03-07T12:00:00Z,28.8332,-90.8320,17.34,11111222 
WAVCIS,ioos:station:WAVCIS:CSI15:1,2011-03-07T13:00:00Z,28.8332,-90.8320,17.46,11111222 
WAVCIS,ioos:station:WAVCIS:CSI15:1,2011-03-07T14:00:00Z,28.8332,-90.8320,17.67,11111222 
WAVCIS,ioos:station:WAVCIS:CSI15:1,2011-03-07T15:00:00Z,28.8332,-90.8320,17.84,11111222 
WAVCIS,ioos:station:WAVCIS:CSI15:1,2011-03-07T16:00:00Z,28.8332,-90.8320,18.4,11111222 
WAVCIS,ioos:station:WAVCIS:CSI15:1,2011-03-07T17:00:00Z,28.8332,-90.8320,18.71,11111222 
WAVCIS,ioos:station:WAVCIS:CSI15:1,2011-03-07T18:00:00Z,28.8332,-90.8320,19.27,11111222 
WAVCIS,ioos:station:WAVCIS:CSI15:1,2011-03-07T19:00:00Z,28.8332,-90.8320,19.9,11111222 
WAVCIS,ioos:station:WAVCIS:CSI15:1,2011-03-07T20:00:00Z,28.8332,-90.8320,19.14,11111222 
WAVCIS,ioos:station:WAVCIS:CSI15:1,2011-03-07T21:00:00Z,28.8332,-90.8320,19.44,11111222 
WAVCIS,ioos:station:WAVCIS:CSI15:1,2011-03-07T22:00:00Z,28.8332,-90.8320,20.02,11111222 
WAVCIS,ioos:station:WAVCIS:CSI15:1,2011-03-07T23:00:00Z,28.8332,-90.8320,19.97,11111222 
WAVCIS,ioos:station:WAVCIS:CSI15:1,2011-03-08T00:00:00Z,28.8332,-90.8320,20.11,11111222 
WAVCIS,ioos:station:WAVCIS:CSI15:1,2011-03-08T01:00:00Z,28.8332,-90.8320,20.57,11111222 
WAVCIS,ioos:station:WAVCIS:CSI15:1,2011-03-08T02:00:00Z,28.8332,-90.8320,21.42,11111222 
WAVCIS,ioos:station:WAVCIS:CSI15:1,2011-03-08T03:00:00Z,28.8332,-90.8320,21.8,11111222 
WAVCIS,ioos:station:WAVCIS:CSI15:1,2011-03-08T04:00:00Z,28.8332,-90.8320,22.17,11111222 
WAVCIS,ioos:station:WAVCIS:CSI15:1,2011-03-08T05:00:00Z,28.8332,-90.8320,22.27,11111222 
WAVCIS,ioos:station:WAVCIS:CSI15:1,2011-03-08T06:00:00Z,28.8332,-90.8320,22.38,11111222 
WAVCIS,ioos:station:WAVCIS:CSI15:1,2011-03-08T07:00:00Z,28.8332,-90.8320,22.39,11111222 
WAVCIS,ioos:station:WAVCIS:CSI15:1,2011-03-08T08:00:00Z,28.8332,-90.8320,22.9,11111222 
WAVCIS,ioos:station:WAVCIS:CSI15:1,2011-03-08T09:00:00Z,28.8332,-90.8320,23.34,11111222 
WAVCIS,ioos:station:WAVCIS:CSI15:1,2011-03-08T10:00:00Z,28.8332,-90.8320,23.82,11111222 
WAVCIS,ioos:station:WAVCIS:CSI15:1,2011-03-08T11:00:00Z,28.8332,-90.8320,23.74,11111222 
WAVCIS,ioos:station:WAVCIS:CSI15:1,2011-03-08T12:00:00Z,28.8332,-90.8320,24.11,11111222 
WAVCIS,ioos:station:WAVCIS:CSI15:1,2011-03-08T13:00:00Z,28.8332,-90.8320,25.08,11111222 
WAVCIS,ioos:station:WAVCIS:CSI15:1,2011-03-08T14:00:00Z,28.8332,-90.8320,24.42,11111222 
WAVCIS,ioos:station:WAVCIS:CSI15:1,2011-03-08T15:00:00Z,28.8332,-90.8320,25.55,11111222 
WAVCIS,ioos:station:WAVCIS:CSI15:1,2011-03-08T16:00:00Z,28.8332,-90.8320,24.48,11111222 
WAVCIS,ioos:station:WAVCIS:CSI15:1,2011-03-08T17:00:00Z,28.8332,-90.8320,25.76,11111222 
WAVCIS,ioos:station:WAVCIS:CSI15:1,2011-03-08T18:00:00Z,28.8332,-90.8320,26.14,11111222 
WAVCIS,ioos:station:WAVCIS:CSI15:1,2011-03-08T19:00:00Z,28.8332,-90.8320,26.44,11111222 
WAVCIS,ioos:station:WAVCIS:CSI15:1,2011-03-08T20:00:00Z,28.8332,-90.8320,25.31,11111222 
WAVCIS,ioos:station:WAVCIS:CSI15:1,2011-03-08T21:00:00Z,28.8332,-90.8320,24.75,11111222 
WAVCIS,ioos:station:WAVCIS:CSI15:1,2011-03-08T22:00:00Z,28.8332,-90.8320,24.68,11111222 
WAVCIS,ioos:station:WAVCIS:CSI15:1,2011-03-08T23:00:00Z,28.8332,-90.8320,24.62,11111222 
WAVCIS,ioos:station:WAVCIS:CSI15:1,2011-03-09T00:00:00Z,28.8332,-90.8320,24.51,11111222 
WAVCIS,ioos:station:WAVCIS:CSI15:1,2011-03-09T01:00:00Z,28.8332,-90.8320,24.32,11111222 
WAVCIS,ioos:station:WAVCIS:CSI15:1,2011-03-09T02:00:00Z,28.8332,-90.8320,24.17,11111222 
WAVCIS,ioos:station:WAVCIS:CSI15:1,2011-03-09T03:00:00Z,28.8332,-90.8320,24.23,11111222 
WAVCIS,ioos:station:WAVCIS:CSI15:1,2011-03-09T04:00:00Z,28.8332,-90.8320,24.14,11111222 
WAVCIS,ioos:station:WAVCIS:CSI15:1,2011-03-09T05:00:00Z,28.8332,-90.8320,24.02,11111222 
WAVCIS,ioos:station:WAVCIS:CSI15:1,2011-03-09T06:00:00Z,28.8332,-90.8320,23.91,11111222 
WAVCIS,ioos:station:WAVCIS:CSI15:1,2011-03-09T07:00:00Z,28.8332,-90.8320,23.81,11111222 
WAVCIS,ioos:station:WAVCIS:CSI15:1,2011-03-09T08:00:00Z,28.8332,-90.8320,23.75,11111222 
WAVCIS,ioos:station:WAVCIS:CSI15:1,2011-03-09T09:00:00Z,28.8332,-90.8320,23.74,11111222 
WAVCIS,ioos:station:WAVCIS:CSI15:1,2011-03-09T10:00:00Z,28.8332,-90.8320,24.39,11111222 
WAVCIS,ioos:station:WAVCIS:CSI15:1,2011-03-09T11:00:00Z,28.8332,-90.8320,24.14,11111222 
WAVCIS,ioos:station:WAVCIS:CSI15:1,2011-03-09T12:00:00Z,28.8332,-90.8320,23.8,11111222 
WAVCIS,ioos:station:WAVCIS:CSI15:1,2011-03-09T13:00:00Z,28.8332,-90.8320,23.52,11111222 
WAVCIS,ioos:station:WAVCIS:CSI15:1,2011-03-09T14:00:00Z,28.8332,-90.8320,24.1,11111222 
WAVCIS,ioos:station:WAVCIS:CSI15:1,2011-03-09T15:00:00Z,28.8332,-90.8320,24.39,11111222 
WAVCIS,ioos:station:WAVCIS:CSI15:1,2011-03-09T16:00:00Z,28.8332,-90.8320,24.29,11111222 
WAVCIS,ioos:station:WAVCIS:CSI15:1,2011-03-09T17:00:00Z,28.8332,-90.8320,24.45,11111222 
WAVCIS,ioos:station:WAVCIS:CSI15:1,2011-03-09T18:00:00Z,28.8332,-90.8320,24.79,11111222 
WAVCIS,ioos:station:WAVCIS:CSI15:1,2011-03-09T19:00:00Z,28.8332,-90.8320,24.69,11111222 
WAVCIS,ioos:station:WAVCIS:CSI15:1,2011-03-09T20:00:00Z,28.8332,-90.8320,24.72,11111222 
WAVCIS,ioos:station:WAVCIS:CSI15:1,2011-03-09T21:00:00Z,28.8332,-90.8320,24.7,11111222 
WAVCIS,ioos:station:WAVCIS:CSI15:1,2011-03-09T22:00:00Z,28.8332,-90.8320,24.4,11111222 
WAVCIS,ioos:station:WAVCIS:CSI15:1,2011-03-09T23:00:00Z,28.8332,-90.8320,23.61,11111222 
WAVCIS,ioos:station:WAVCIS:CSI15:1,2011-03-10T00:00:00Z,28.8332,-90.8320,23.24,11111222 
WAVCIS,ioos:station:WAVCIS:CSI15:1,2011-03-10T01:00:00Z,28.8332,-90.8320,24.19,11111222 
WAVCIS,ioos:station:WAVCIS:CSI15:1,2011-03-10T02:00:00Z,28.8332,-90.8320,24.88,11111222 
WAVCIS,ioos:station:WAVCIS:CSI15:1,2011-03-10T03:00:00Z,28.8332,-90.8320,24.53,11111222 
WAVCIS,ioos:station:WAVCIS:CSI15:1,2011-03-10T04:00:00Z,28.8332,-90.8320,23.87,11111222 
WAVCIS,ioos:station:WAVCIS:CSI15:1,2011-03-10T05:00:00Z,28.8332,-90.8320,22.71,11111222 
WAVCIS,ioos:station:WAVCIS:CSI15:1,2011-03-10T06:00:00Z,28.8332,-90.8320,21.45,11111222 
WAVCIS,ioos:station:WAVCIS:CSI15:1,2011-03-10T07:00:00Z,28.8332,-90.8320,20.41,11111222 
WAVCIS,ioos:station:WAVCIS:CSI15:1,2011-03-10T08:00:00Z,28.8332,-90.8320,19.44,11111222 
WAVCIS,ioos:station:WAVCIS:CSI15:1,2011-03-10T09:00:00Z,28.8332,-90.8320,18.9,11111222 
WAVCIS,ioos:station:WAVCIS:CSI15:1,2011-03-10T10:00:00Z,28.8332,-90.8320,18.69,11111222 
WAVCIS,ioos:station:WAVCIS:CSI15:1,2011-03-10T11:00:00Z,28.8332,-90.8320,18.35,11111222 
WAVCIS,ioos:station:WAVCIS:CSI15:1,2011-03-10T12:00:00Z,28.8332,-90.8320,17.64,11111222 
WAVCIS,ioos:station:WAVCIS:CSI15:1,2011-03-10T13:00:00Z,28.8332,-90.8320,16.77,11111222 
WAVCIS,ioos:station:WAVCIS:CSI15:1,2011-03-10T14:00:00Z,28.8332,-90.8320,16.16,11111222 
WAVCIS,ioos:station:WAVCIS:CSI15:1,2011-03-10T15:00:00Z,28.8332,-90.8320,15.88,11111222 
WAVCIS,ioos:station:WAVCIS:CSI15:1,2011-03-10T16:00:00Z,28.8332,-90.8320,15.73,11111222 
WAVCIS,ioos:station:WAVCIS:CSI15:1,2011-03-10T17:00:00Z,28.8332,-90.8320,15.85,11111222 
WAVCIS,ioos:station:WAVCIS:CSI15:1,2011-03-10T18:00:00Z,28.8332,-90.8320,15.84,11111222 
WAVCIS,ioos:station:WAVCIS:CSI15:1,2011-03-10T19:00:00Z,28.8332,-90.8320,15.92,11111222 
WAVCIS,ioos:station:WAVCIS:CSI15:1,2011-03-10T20:00:00Z,28.8332,-90.8320,16.35,11111222 
WAVCIS,ioos:station:WAVCIS:CSI15:1,2011-03-10T21:00:00Z,28.8332,-90.8320,17.05,11111222 
WAVCIS,ioos:station:WAVCIS:CSI15:1,2011-03-10T22:00:00Z,28.8332,-90.8320,17.96,11111222 
WAVCIS,ioos:station:WAVCIS:CSI15:1,2011-03-10T23:00:00Z,28.8332,-90.8320,18.45,11111222 
WAVCIS,ioos:station:WAVCIS:CSI15:1,2011-03-11T00:00:00Z,28.8332,-90.8320,18.94,11111222 
WAVCIS,ioos:station:WAVCIS:CSI15:1,2011-03-11T01:00:00Z,28.8332,-90.8320,19.39,11111222 
WAVCIS,ioos:station:WAVCIS:CSI15:1,2011-03-11T02:00:00Z,28.8332,-90.8320,19.74,11111222 
WAVCIS,ioos:station:WAVCIS:CSI15:1,2011-03-11T03:00:00Z,28.8332,-90.8320,19.84,11111222 
WAVCIS,ioos:station:WAVCIS:CSI15:1,2011-03-11T04:00:00Z,28.8332,-90.8320,19.69,11111222 
WAVCIS,ioos:station:WAVCIS:CSI15:1,2011-03-11T05:00:00Z,28.8332,-90.8320,19.28,11111222 
WAVCIS,ioos:station:WAVCIS:CSI15:1,2011-03-11T06:00:00Z,28.8332,-90.8320,19.0,11111222 
WAVCIS,ioos:station:WAVCIS:CSI15:1,2011-03-11T07:00:00Z,28.8332,-90.8320,18.89,11111222 
WAVCIS,ioos:station:WAVCIS:CSI15:1,2011-03-11T08:00:00Z,28.8332,-90.8320,19.13,11111222 
WAVCIS,ioos:station:WAVCIS:CSI15:1,2011-03-11T09:00:00Z,28.8332,-90.8320,18.82,11111222 
WAVCIS,ioos:station:WAVCIS:CSI15:1,2011-03-11T10:00:00Z,28.8332,-90.8320,18.68,11111222 
WAVCIS,ioos:station:WAVCIS:CSI15:1,2011-03-11T11:00:00Z,28.8332,-90.8320,18.81,11111222 
WAVCIS,ioos:station:WAVCIS:CSI15:1,2011-03-11T12:00:00Z,28.8332,-90.8320,18.87,11111222 
WAVCIS,ioos:station:WAVCIS:CSI15:1,2011-03-11T13:00:00Z,28.8332,-90.8320,19.27,11111222 
WAVCIS,ioos:station:WAVCIS:CSI15:1,2011-03-11T14:00:00Z,28.8332,-90.8320,19.55,11111222 
WAVCIS,ioos:station:WAVCIS:CSI15:1,2011-03-11T15:00:00Z,28.8332,-90.8320,19.38,11111222 
WAVCIS,ioos:station:WAVCIS:CSI15:1,2011-03-11T16:00:00Z,28.8332,-90.8320,19.43,11111222 
WAVCIS,ioos:station:WAVCIS:CSI15:1,2011-03-11T17:00:00Z,28.8332,-90.8320,19.57,11111222 
WAVCIS,ioos:station:WAVCIS:CSI15:1,2011-03-11T18:00:00Z,28.8332,-90.8320,22.94,11111222 
WAVCIS,ioos:station:WAVCIS:CSI15:1,2011-03-11T19:00:00Z,28.8332,-90.8320,20.75,11111222 
WAVCIS,ioos:station:WAVCIS:CSI15:1,2011-03-11T20:00:00Z,28.8332,-90.8320,22.28,11111222 
WAVCIS,ioos:station:WAVCIS:CSI15:1,2011-03-11T21:00:00Z,28.8332,-90.8320,20.07,11111222 
WAVCIS,ioos:station:WAVCIS:CSI15:1,2011-03-11T22:00:00Z,28.8332,-90.8320,20.58,11111222 
WAVCIS,ioos:station:WAVCIS:CSI15:1,2011-03-11T23:00:00Z,28.8332,-90.8320,20.87,11111222 
WAVCIS,ioos:station:WAVCIS:CSI15:1,2011-03-12T00:00:00Z,28.8332,-90.8320,20.49,11111222 
WAVCIS,ioos:station:WAVCIS:CSI15:1,2011-03-12T01:00:00Z,28.8332,-90.8320,20.03,11111222 
WAVCIS,ioos:station:WAVCIS:CSI15:1,2011-03-12T02:00:00Z,28.8332,-90.8320,19.71,11111222 
WAVCIS,ioos:station:WAVCIS:CSI15:1,2011-03-12T03:00:00Z,28.8332,-90.8320,19.77,11111222 
WAVCIS,ioos:station:WAVCIS:CSI15:1,2011-03-12T04:00:00Z,28.8332,-90.8320,19.89,11111222 